Weather History for Fort Myers, FL

Change the Weather History Date:

Monday, February 24, 2014

  Actual Average Record
Temperature  
Mean Temperature 75 °F 68 °F  
Max Temperature 83 °F 78 °F 88 °F (2001)
Min Temperature 67 °F 57 °F 37 °F (1989)
Degree Days  
Heating Degree Days 0 2  
Month to date heating degree days 16 54  
Since 1 July heating degree days 167 255  
Cooling Degree Days 10 4  
Month to date cooling degree days 164 86  
Year to date cooling degree days 247 169  
Growing Degree Days 24 (Base 50)    
Moisture  
Dew Point 66 °F    
Average Humidity 79    
Maximum Humidity 97    
Minimum Humidity 54    
Precipitation  
Precipitation 0.00 in 0.08 in 1.33 in (1992)
Month to date precipitation 1.01 1.80  
Year to date precipitation 3.17 3.74  
Sea Level Pressure  
Sea Level Pressure 30.04 in    
Wind  
Wind Speed 6 mph (WNW)    
Max Wind Speed 14 mph    
Max Gust Speed 18 mph    
Visibility 10 miles    
Events      
T = Trace of Precipitation, MM = Missing Value Source: NWS Daily Summary

Daily Weather History Graph

Daily Weather History Graph

Search for Another Location

Airport:

Trip Planner

Search our weather history database for the weather conditions in past years. The results will help you decide how hot, cold, wet, or windy it might be!

Date:

Astronomy

Feb. 24, 2014 Rise Set
Actual Time 6:55 AM EST 6:25 PM EST
Civil Twilight 6:32 AM EST 6:49 PM EST
Nautical Twilight 6:05 AM EST 7:16 PM EST
Astronomical Twilight 5:38 AM EST 7:43 PM EST
Moon 2:36 AM EST (2/24) 1:42 PM EST (2/24)
Length of Visible Light 12h 16m
Length of Day
11h 29m
Waning Crescent, 28% of the Moon is Illuminated
Feb 24
Waning Crescent
Mar 1
New
Mar 8
First Quarter
Mar 16
Full
Mar 23
Last Quarter

Hourly Weather History & Observations

Time (EST) Temp. Heat Index Dew Point Humidity Pressure Visibility Wind Dir Wind Speed Gust Speed Precip Events Conditions
12:09 AM 68.0 °F - 66.9 °F 96% 30.06 in 10.0 mi NNW 8.1 mph - N/A   Mostly Cloudy
12:46 AM 68.0 °F - 66.9 °F 96% 30.05 in 10.0 mi NNW 5.8 mph - N/A   Scattered Clouds
12:53 AM 68.0 °F - 66.9 °F 96% 30.06 in 10.0 mi NNW 5.8 mph - N/A   Scattered Clouds
1:01 AM 69.1 °F - 68.0 °F 96% 30.05 in 10.0 mi NNW 4.6 mph - N/A   Mostly Cloudy
1:53 AM 68.0 °F - 66.0 °F 93% 30.04 in 10.0 mi Calm Calm - N/A   Mostly Cloudy
2:53 AM 69.1 °F - 66.9 °F 93% 30.03 in 10.0 mi NW 4.6 mph - N/A   Overcast
3:53 AM 69.1 °F - 66.0 °F 90% 30.01 in 10.0 mi Calm Calm - N/A   Mostly Cloudy
4:30 AM 66.9 °F - 66.0 °F 97% 30.00 in 10.0 mi WSW 3.5 mph - N/A   Mostly Cloudy
4:53 AM 68.0 °F - 66.0 °F 93% 30.01 in 10.0 mi SSW 3.5 mph - N/A   Mostly Cloudy
5:02 AM 68.0 °F - 64.9 °F 90% 30.00 in 10.0 mi South 3.5 mph - N/A   Scattered Clouds
5:53 AM 66.9 °F - 64.9 °F 93% 30.02 in 10.0 mi WNW 4.6 mph - N/A   Clear
6:11 AM 68.0 °F - 64.9 °F 90% 30.01 in 10.0 mi SSW 3.5 mph - N/A   Scattered Clouds
6:53 AM 66.9 °F - 64.9 °F 93% 30.00 in 10.0 mi South 5.8 mph - N/A   Clear
7:53 AM 68.0 °F - 66.0 °F 93% 30.03 in 9.0 mi East 4.6 mph - N/A   Clear
8:53 AM 72.0 °F - 66.9 °F 84% 30.04 in 10.0 mi Calm Calm - N/A   Clear
9:53 AM 75.9 °F - 66.9 °F 74% 30.06 in 10.0 mi Calm Calm - N/A   Scattered Clouds
10:43 AM 77.0 °F - 66.9 °F 71% 30.06 in 10.0 mi WNW 5.8 mph - N/A   Mostly Cloudy
10:53 AM 78.1 °F - 66.9 °F 68% 30.06 in 10.0 mi Variable 4.6 mph - N/A   Mostly Cloudy
11:00 AM 79.0 °F - 66.0 °F 64% 30.06 in 10.0 mi WNW 6.9 mph - N/A   Scattered Clouds
11:53 AM 79.0 °F - 66.9 °F 66% 30.06 in 10.0 mi WNW 8.1 mph - N/A   Scattered Clouds
12:09 PM 78.1 °F - 66.9 °F 68% 30.05 in 10.0 mi West 13.8 mph - N/A   Mostly Cloudy
12:38 PM 80.1 °F 82.1 °F 66.0 °F 62% 30.03 in 10.0 mi West 10.4 mph - N/A   Scattered Clouds
12:53 PM 81.0 °F 82.7 °F 64.9 °F 58% 30.04 in 10.0 mi WNW 9.2 mph - N/A   Clear
1:53 PM 80.1 °F 81.9 °F 64.9 °F 60% 30.01 in 10.0 mi NW 8.1 mph - N/A   Mostly Cloudy
2:53 PM 82.0 °F 83.4 °F 64.0 °F 54% 30.00 in 10.0 mi WNW 11.5 mph - N/A   Scattered Clouds
3:53 PM 80.1 °F 81.9 °F 64.9 °F 60% 30.00 in 10.0 mi WNW 11.5 mph - N/A   Partly Cloudy
4:53 PM 80.1 °F 81.2 °F 62.1 °F 54% 30.00 in 10.0 mi NW 11.5 mph - N/A   Clear
5:53 PM 77.0 °F - 64.0 °F 64% 30.03 in 10.0 mi NW 9.2 mph - N/A   Clear
6:53 PM 73.9 °F - 64.0 °F 71% 30.04 in 10.0 mi WNW 8.1 mph - N/A   Clear
7:53 PM 73.0 °F - 64.9 °F 76% 30.04 in 10.0 mi WNW 8.1 mph - N/A   Clear
8:53 PM 72.0 °F - 66.0 °F 81% 30.07 in 10.0 mi WNW 5.8 mph - N/A   Mostly Cloudy
9:53 PM 71.1 °F - 66.0 °F 84% 30.06 in 10.0 mi WNW 4.6 mph - N/A   Clear
10:53 PM 71.1 °F - 66.9 °F 87% 30.07 in 10.0 mi WNW 4.6 mph - N/A   Scattered Clouds
11:53 PM 70.0 °F - 66.0 °F 87% 30.07 in 10.0 mi North 4.6 mph - N/A   Clear